STARLINK-32465, 61716

Orbit data source: Space-Track

STARLINK-32465, 61716 is a payload satellite owned by SpaceX/Seattle (US) in LEO that was launched on Wed, 30 Oct 2024 UTC via an FALCON 9 launch vehicle from the Air Force Eastern Test Range (AFETR). Payloads include a variety of satellites, spacecraft, and rockets equipped with specific instruments for various scientific and technological missions. These include communications satellites like Starlink; space stations such as the ISS; scientific satellites like the Hubble; Earth observation satellites from companies like Planet Labs, Umbra, and HawkEye 360; GPS; miniature CubeSats for education and research; and military/defense satellites.

Loading next visibility...
STARLINK-32465 details
Identifier
61716, 2024-196K
Orbit
LEO
Last TLE update1 day ago
Origin
Flag of USSpaceX/Seattle (US)
ManufacturerSpaceX/Seattle
MissionOperational spacecraft
Bus & MotorSTARLINK V2M, Unknown motor
Mass730 kg wet, ~700 kg dry
Launch date (UTC)
2024-10-30 (2 months ago)
Launch vehicle
FALCON 9
Launch site
Air Force Eastern Test Range (AFETR)
Object type
Payload
Rocket body
Debris
Shape & HBRUnknown
Radar Cross SectionLarge (>1 m²)

Expand to show TLE details & history

TLE from 1 day ago
0 STARLINK-32465
1 61716U 24196K   24360.38427065  .00000294  00000-0  17343-4 0  9990
2 61716  53.1627 344.2414 0001595 108.3903 251.7276 15.39623988  9860
Epoch: 2024-12-25T09:13Z
Definitive object data (Epoch: 2024-12-25T09:13:20.984Z)
Latitude0.00004°
Longitude111.52521°
Altitude448.466 km
Speed7.644 km/s
True Right ascension22h 56m 57s
True Declination0° 00' 00"
Sunlit
Object was in daylight at TLE epoch
Visualization TLE readout
Latitude35.387°
Longitude138.53945°
Altitude449.418 km
Speed7.648 km/s
Apparent Right ascension23h 19m 46s
Apparent Declination0° 49' 01"
Sunlit
Object is in daylight
Visualization observer readout
Local Sidereal Time09:42:06
Azimuth324.208° NNW
Elevation-45.029°
Doppler factor1
Orbital elements
Apogee altitude448.566 km
Perigee altitude446.389 km
Semi-major axis6,825.614 km
Eccentricity0.0001595
Inclination53.1627°
RAAN344.2414°
Arg. of periapsis108.3903°
True anomaly251.71025°
Mean anomaly251.7276°
Eccentric anomaly251.71892°
Mean motion3.84885 °/min
BSTAR0.000017343
Orbital period93.53 mins
Loading maneuver chart data...
Loading historical data...
Loading historical data...
Loading historical data...
Loading historical data...
Loading historical data...
Loading historical data...
Loading historical data...

STARLINK-32465 Visibility forecast

Observer location: undefined°, undefined

Span
Click to sort rows by Start time (UTC) header in descending order
Start Az.
Max El. time (UTC)
Max El. Az.
Max El.
End time (UTC)
End Az.
4 mins2024-12-27 01:56:56.374Z258.371° W2024-12-27 01:57:56.374Z289.314° WNW37.336°2024-12-27 02:00:56.374Z38.477° NE
5 mins2024-12-27 08:28:56.374Z301.974° NW2024-12-27 08:30:56.374Z220.839° SW43.335°2024-12-27 08:33:56.374Z139.348° SSE
|